Retour au catalogue

STARLINK-37021

ActifCommunicationsSSO
NORAD 68105·PAYLOAD·🇺🇸 United States

Lancé Mar 8, 2026 depuis Vandenberg Space Force Base

Loading…

Prochains Passages (prochaines 24 heures)

TLE

FraisSource: CelesTrak SupGP

Époque: Sep 14, 2026, 23:17 UTC

1 68105C 26044E   26257.97062500 -.00063298  00000+0 -19642-2 0  2577
2 68105  97.2850 216.9524 0002108  85.9698  44.9407 15.33481955    11

Suivez STARLINK-37021 en temps réel avec AllMySat

Download on the App Store